JES3010 SABE-SASA

Flight info

Callsign JES3010
Flight time 1h 44m
Altitude 34000
Route BIVAM4B BIVAM UW8 ERE UT672 DADMI UT677 ILPAR ILPAR2N
Aircraft A320/M-SDE3FGHIRWY/LB1

Departure

Time 2026-05-04 15:24
Airport Aeroparque Jorge Newbery (SABE)

Arrival

Time 2026-05-04 17:09
Airport Martín Miguel de Güemes International Airport (SASA)
Time Latitude Longitude Altitude Speed Heading
2026-05-04 14:41 -34.55938 -58.41047 26 ft 0 kts 41°
2026-05-04 15:13 -34.55952 -58.41062 30 ft 4 kts 38°
2026-05-04 15:14 -34.55961 -58.41069 25 ft 0 kts 33°
2026-05-04 15:15 -34.55959 -58.41068 25 ft 0 kts 33°
2026-05-04 15:15 -34.55957 -58.41066 25 ft 0 kts 33°
2026-05-04 15:17 -34.55954 -58.41066 25 ft 0 kts 17°
2026-05-04 15:18 -34.55950 -58.41068 25 ft 2 kts 344°
2026-05-04 15:18 -34.55935 -58.41100 30 ft 6 kts 298°
2026-05-04 15:18 -34.55927 -58.41117 25 ft 0 kts 298°
2026-05-04 15:19 -34.55926 -58.41119 28 ft 1 kts 298°
2026-05-04 15:19 -34.55920 -58.41134 30 ft 3 kts 298°
2026-05-04 15:19 -34.55877 -58.41208 25 ft 8 kts 309°
2026-05-04 15:20 -34.55860 -58.41273 28 ft 9 kts 248°
2026-05-04 15:20 -34.55918 -58.41301 28 ft 10 kts 152°
2026-05-04 15:20 -34.55967 -58.41234 29 ft 11 kts 128°
2026-05-04 15:20 -34.56020 -58.41152 25 ft 13 kts 126°
2026-05-04 15:21 -34.56077 -58.41058 26 ft 15 kts 126°
2026-05-04 15:21 -34.56140 -58.40951 29 ft 16 kts 124°
2026-05-04 15:21 -34.56243 -58.40703 28 ft 18 kts 124°
2026-05-04 15:22 -34.56307 -58.40590 28 ft 14 kts 132°
2026-05-04 15:22 -34.56384 -58.40504 29 ft 16 kts 139°
2026-05-04 15:22 -34.56542 -58.40397 25 ft 14 kts 216°
2026-05-04 15:23 -34.56528 -58.40497 27 ft 15 kts 308°
2026-05-04 15:23 -34.56456 -58.40627 26 ft 30 kts 304°
2026-05-04 15:23 -34.56208 -58.41067 27 ft 94 kts 304°
2026-05-04 15:23 -34.55748 -58.41885 33 ft 140 kts 307°
2026-05-04 15:24 -34.54563 -58.43846 1102 ft 145 kts 301°
2026-05-04 15:24 -34.53252 -58.45749 2085 ft 166 kts 321°
2026-05-04 15:25 -34.52243 -58.46604 2323 ft 188 kts 323°
2026-05-04 15:25 -34.51096 -58.47567 2626 ft 214 kts 323°
2026-05-04 15:25 -34.49806 -58.48651 3058 ft 237 kts 324°
2026-05-04 15:26 -34.46995 -58.51042 4592 ft 250 kts 323°
2026-05-04 15:26 -34.45571 -58.52273 5529 ft 252 kts 323°
2026-05-04 15:26 -34.42682 -58.54794 7198 ft 261 kts 323°
2026-05-04 15:27 -34.41198 -58.56096 7904 ft 267 kts 323°
2026-05-04 15:27 -34.38142 -58.58779 9348 ft 279 kts 322°
2026-05-04 15:28 -34.34923 -58.61601 10406 ft 302 kts 322°
2026-05-04 15:28 -34.33158 -58.63154 10576 ft 325 kts 322°
2026-05-04 15:28 -34.29391 -58.66456 11587 ft 339 kts 321°
2026-05-04 15:29 -34.27468 -58.68133 12259 ft 342 kts 321°
2026-05-04 15:30 -34.19704 -58.74897 14834 ft 349 kts 319°
2026-05-04 15:30 -34.13758 -58.80095 16551 ft 355 kts 319°
2026-05-04 15:31 -34.09721 -58.83610 17694 ft 360 kts 319°
2026-05-04 15:31 -34.07680 -58.85379 18276 ft 362 kts 319°
2026-05-04 15:32 -34.01471 -58.90768 19719 ft 372 kts 318°
2026-05-04 15:32 -33.97232 -58.94442 20652 ft 379 kts 319°
2026-05-04 15:33 -33.92777 -58.97912 21514 ft 389 kts 322°
2026-05-04 15:34 -33.85692 -59.02940 22784 ft 399 kts 323°
2026-05-04 15:34 -33.83299 -59.04653 23210 ft 401 kts 322°
2026-05-04 15:34 -33.78488 -59.08144 23948 ft 407 kts 322°
2026-05-04 15:35 -33.73616 -59.11704 24653 ft 412 kts 321°
2026-05-04 15:35 -33.71157 -59.13499 25008 ft 415 kts 321°
2026-05-04 15:35 -33.68682 -59.15299 25358 ft 417 kts 321°
2026-05-04 15:36 -33.63690 -59.18921 26050 ft 422 kts 321°
2026-05-04 15:36 -33.61205 -59.20722 26392 ft 425 kts 321°
2026-05-04 15:36 -33.58669 -59.22557 26725 ft 427 kts 321°
2026-05-04 15:37 -33.56121 -59.24403 27054 ft 429 kts 321°
2026-05-04 15:37 -33.53562 -59.26259 27377 ft 431 kts 321°
2026-05-04 15:37 -33.50984 -59.28125 27711 ft 434 kts 321°
2026-05-04 15:37 -33.48396 -59.29996 28049 ft 436 kts 321°
2026-05-04 15:38 -33.45792 -59.31878 28374 ft 438 kts 321°
2026-05-04 15:38 -33.43173 -59.33766 28707 ft 440 kts 321°
2026-05-04 15:38 -33.40543 -59.35664 28995 ft 443 kts 321°
2026-05-04 15:38 -33.37936 -59.37541 29399 ft 443 kts 320°
2026-05-04 15:39 -33.35299 -59.39436 29877 ft 442 kts 320°
2026-05-04 15:39 -33.32666 -59.41326 30305 ft 441 kts 320°
2026-05-04 15:39 -33.27415 -59.45095 31111 ft 439 kts 320°
2026-05-04 15:40 -33.24800 -59.46973 31515 ft 439 kts 319°
2026-05-04 15:40 -33.22187 -59.48847 31928 ft 437 kts 319°
2026-05-04 15:40 -33.19583 -59.50714 32298 ft 437 kts 319°
2026-05-04 15:40 -33.16977 -59.52586 32681 ft 436 kts 319°
2026-05-04 15:41 -33.14377 -59.54452 33083 ft 437 kts 319°
2026-05-04 15:41 -33.11776 -59.56314 33516 ft 435 kts 318°
2026-05-04 15:41 -33.09213 -59.58143 33890 ft 435 kts 318°
2026-05-04 15:42 -33.03989 -59.61879 33993 ft 441 kts 318°
2026-05-04 15:42 -32.98713 -59.65647 33993 ft 444 kts 319°
2026-05-04 15:43 -32.93411 -59.69419 33994 ft 444 kts 319°
2026-05-04 15:43 -32.88103 -59.73194 33992 ft 444 kts 319°
2026-05-04 15:44 -32.82837 -59.76938 33993 ft 444 kts 319°
2026-05-04 15:44 -32.77521 -59.80698 33974 ft 446 kts 319°
2026-05-04 15:45 -32.72198 -59.84468 33976 ft 446 kts 319°
2026-05-04 15:45 -32.66868 -59.88246 33986 ft 446 kts 319°
2026-05-04 15:46 -32.61538 -59.92007 33995 ft 446 kts 319°
2026-05-04 15:46 -32.56213 -59.95760 33999 ft 445 kts 319°
2026-05-04 15:47 -32.50928 -59.99493 33999 ft 445 kts 319°
2026-05-04 15:47 -32.45612 -60.03239 33996 ft 444 kts 319°
2026-05-04 15:48 -32.40293 -60.06972 33974 ft 445 kts 319°
2026-05-04 15:48 -32.32305 -60.12591 33989 ft 446 kts 319°
2026-05-04 15:49 -32.26973 -60.16330 33993 ft 446 kts 319°
2026-05-04 15:49 -32.21636 -60.20063 33984 ft 446 kts 320°
2026-05-04 15:50 -32.16340 -60.23762 33999 ft 445 kts 320°
2026-05-04 15:50 -32.11003 -60.27492 34013 ft 445 kts 320°
2026-05-04 15:51 -32.05676 -60.31204 34011 ft 444 kts 320°
2026-05-04 15:51 -32.00359 -60.34901 33982 ft 444 kts 320°
2026-05-04 15:52 -31.95052 -60.38595 34003 ft 443 kts 320°
2026-05-04 15:52 -31.89778 -60.42262 34004 ft 443 kts 320°
2026-05-04 15:53 -31.84472 -60.45948 34012 ft 443 kts 320°
2026-05-04 15:53 -31.79180 -60.49636 34007 ft 441 kts 320°
2026-05-04 15:54 -31.74041 -60.53509 34018 ft 438 kts 318°
2026-05-04 15:54 -31.68985 -60.57467 34019 ft 436 kts 318°
2026-05-04 15:55 -31.63945 -60.61358 34004 ft 437 kts 319°
2026-05-04 15:55 -31.58846 -60.65233 33986 ft 436 kts 319°
2026-05-04 15:56 -31.53752 -60.69091 33992 ft 435 kts 319°
2026-05-04 15:56 -31.48663 -60.72934 33991 ft 435 kts 319°
2026-05-04 15:57 -31.43576 -60.76781 33985 ft 435 kts 319°
2026-05-04 15:57 -31.38534 -60.80605 33977 ft 434 kts 319°
2026-05-04 15:58 -31.33464 -60.84442 33992 ft 434 kts 320°
2026-05-04 15:58 -31.28387 -60.88263 33993 ft 434 kts 320°
2026-05-04 15:59 -31.23310 -60.92084 33995 ft 434 kts 320°
2026-05-04 15:59 -31.18244 -60.95897 33979 ft 433 kts 320°
2026-05-04 16:00 -31.13218 -60.99680 33986 ft 433 kts 320°
2026-05-04 16:00 -31.08152 -61.03481 33991 ft 433 kts 320°
2026-05-04 16:01 -31.03089 -61.07265 33996 ft 431 kts 320°
2026-05-04 16:01 -30.98043 -61.11037 33984 ft 430 kts 321°
2026-05-04 16:02 -30.92997 -61.14800 33996 ft 431 kts 321°
2026-05-04 16:03 -30.85464 -61.20407 33992 ft 430 kts 321°
2026-05-04 16:03 -30.80430 -61.24158 33992 ft 430 kts 321°
2026-05-04 16:04 -30.75392 -61.27902 33991 ft 429 kts 321°
2026-05-04 16:04 -30.67845 -61.33496 33997 ft 428 kts 321°
2026-05-04 16:05 -30.62859 -61.37172 33988 ft 427 kts 321°
2026-05-04 16:06 -30.55340 -61.42726 33994 ft 427 kts 321°
2026-05-04 16:07 -30.45320 -61.50132 33987 ft 426 kts 321°
2026-05-04 16:08 -30.35322 -61.57468 33973 ft 427 kts 321°
2026-05-04 16:09 -30.22797 -61.66671 33983 ft 426 kts 321°
2026-05-04 16:10 -30.12802 -61.73972 33968 ft 427 kts 321°
2026-05-04 16:11 -30.02772 -61.81294 33979 ft 427 kts 321°
2026-05-04 16:12 -29.87758 -61.92216 33963 ft 426 kts 321°
2026-05-04 16:13 -29.77324 -61.98802 33971 ft 431 kts 326°
2026-05-04 16:14 -29.66727 -62.05196 33960 ft 429 kts 324°
2026-05-04 16:16 -29.53587 -62.13298 33960 ft 429 kts 324°
2026-05-04 16:17 -29.40463 -62.21337 33944 ft 429 kts 324°
2026-05-04 16:18 -29.29965 -62.27754 33962 ft 428 kts 324°
2026-05-04 16:19 -29.16804 -62.35763 33948 ft 429 kts 324°
2026-05-04 16:20 -29.03657 -62.43760 33932 ft 429 kts 324°
2026-05-04 16:22 -28.90433 -62.51769 33953 ft 431 kts 324°
2026-05-04 16:23 -28.75475 -62.62569 33935 ft 422 kts 316°
2026-05-04 16:25 -28.61219 -62.74358 33950 ft 423 kts 316°
2026-05-04 16:26 -28.44555 -62.88131 33940 ft 423 kts 316°
2026-05-04 16:28 -28.32665 -62.97909 33943 ft 423 kts 316°
2026-05-04 16:29 -28.16022 -63.11567 33937 ft 422 kts 316°
2026-05-04 16:31 -28.04109 -63.21304 33927 ft 422 kts 317°
2026-05-04 16:32 -27.89834 -63.32940 33913 ft 422 kts 317°
2026-05-04 16:33 -27.80296 -63.40704 33911 ft 423 kts 317°
2026-05-04 16:34 -27.73108 -63.46509 33928 ft 423 kts 317°
2026-05-04 16:35 -27.58811 -63.58095 33907 ft 423 kts 317°
2026-05-04 16:36 -27.51656 -63.63875 33909 ft 425 kts 317°
2026-05-04 16:37 -27.44454 -63.69682 33896 ft 424 kts 318°
2026-05-04 16:38 -27.34816 -63.77408 33911 ft 426 kts 318°
2026-05-04 16:39 -27.22829 -63.87033 33898 ft 425 kts 318°
2026-05-04 16:40 -27.13197 -63.94750 33898 ft 425 kts 318°
2026-05-04 16:41 -27.01157 -64.04344 33893 ft 426 kts 318°
2026-05-04 16:43 -26.89121 -64.14033 33892 ft 426 kts 318°
2026-05-04 16:43 -26.81938 -64.19853 33897 ft 427 kts 318°
2026-05-04 16:45 -26.67476 -64.31520 33888 ft 427 kts 318°
2026-05-04 16:46 -26.55435 -64.41218 33905 ft 428 kts 318°
2026-05-04 16:47 -26.45789 -64.48952 33910 ft 429 kts 318°
2026-05-04 16:48 -26.36089 -64.56715 33925 ft 429 kts 318°
2026-05-04 16:49 -26.27211 -64.63802 33908 ft 428 kts 317°
2026-05-04 16:50 -26.17524 -64.71539 33424 ft 428 kts 318°
2026-05-04 16:51 -26.11887 -64.76035 32815 ft 429 kts 318°
2026-05-04 16:51 -26.10284 -64.77309 32625 ft 427 kts 318°
2026-05-04 16:51 -26.05495 -64.81111 31634 ft 420 kts 318°
2026-05-04 16:52 -26.00772 -64.84856 30625 ft 413 kts 319°
2026-05-04 16:52 -25.98436 -64.86699 30130 ft 411 kts 319°
2026-05-04 16:53 -25.93819 -64.90356 29093 ft 404 kts 319°
2026-05-04 16:53 -25.87061 -64.95708 27648 ft 395 kts 320°
2026-05-04 16:54 -25.84831 -64.97475 27183 ft 393 kts 320°
2026-05-04 16:55 -25.76031 -65.04444 25411 ft 385 kts 320°
2026-05-04 16:55 -25.71690 -65.07868 24569 ft 381 kts 320°
2026-05-04 16:56 -25.66991 -65.10528 23704 ft 385 kts 335°
2026-05-04 16:56 -25.59535 -65.13690 22271 ft 378 kts 335°
2026-05-04 16:57 -25.57088 -65.14734 21803 ft 376 kts 335°
2026-05-04 16:57 -25.52240 -65.16802 20858 ft 372 kts 335°
2026-05-04 16:58 -25.45058 -65.19873 19401 ft 370 kts 336°
2026-05-04 16:58 -25.42654 -65.20895 18911 ft 371 kts 336°
2026-05-04 16:59 -25.37843 -65.22943 17890 ft 370 kts 337°
2026-05-04 17:00 -25.28364 -65.26968 15930 ft 360 kts 336°
2026-05-04 17:00 -25.21398 -65.29927 14505 ft 357 kts 336°
2026-05-04 17:01 -25.16774 -65.31894 13313 ft 361 kts 336°
2026-05-04 17:01 -25.12331 -65.33990 12998 ft 332 kts 320°
2026-05-04 17:02 -25.10569 -65.38173 12751 ft 301 kts 263°
2026-05-04 17:02 -25.12670 -65.41811 12429 ft 273 kts 229°
2026-05-04 17:03 -25.13544 -65.43584 12019 ft 262 kts 262°
2026-05-04 17:03 -25.13322 -65.45534 11536 ft 260 kts 297°
2026-05-04 17:03 -25.10512 -65.47948 10552 ft 262 kts 333°
2026-05-04 17:04 -25.07366 -65.49878 9529 ft 260 kts 329°
2026-05-04 17:04 -25.04204 -65.51868 8233 ft 260 kts 341°
2026-05-04 17:05 -25.00771 -65.51956 6988 ft 244 kts 11°
2026-05-04 17:05 -24.97577 -65.51250 6208 ft 219 kts 11°
2026-05-04 17:06 -24.94971 -65.50682 5676 ft 167 kts 12°
2026-05-04 17:06 -24.93875 -65.50441 5457 ft 156 kts 12°
2026-05-04 17:07 -24.91798 -65.49984 5057 ft 150 kts 12°
2026-05-04 17:07 -24.91110 -65.49834 4914 ft 148 kts 12°
2026-05-04 17:07 -24.89776 -65.49520 4621 ft 146 kts 12°
2026-05-04 17:07 -24.88779 -65.49304 4352 ft 146 kts 11°
2026-05-04 17:08 -24.87783 -65.49099 4192 ft 147 kts 11°
2026-05-04 17:08 -24.85952 -65.48701 4019 ft 87 kts 11°
2026-05-04 17:08 -24.85522 -65.48607 4019 ft 54 kts 11°
2026-05-04 17:09 -24.85172 -65.48527 4017 ft 48 kts 12°
2026-05-04 17:09 -24.84865 -65.48461 4019 ft 43 kts
2026-05-04 17:09 -24.84665 -65.48377 4017 ft 25 kts 57°
2026-05-04 17:10 -24.84596 -65.48289 4017 ft 0 kts 71°
2026-05-04 17:10 -24.84575 -65.48220 4017 ft 12 kts 72°
2026-05-04 17:11 -24.84542 -65.48108 4017 ft 19 kts 72°
2026-05-04 17:11 -24.84505 -65.47982 4017 ft 12 kts 71°
2026-05-04 17:11 -24.84499 -65.47910 4017 ft 1 kts 36°
2026-05-04 17:12 -24.84484 -65.47905 4017 ft 3 kts 23°
2026-05-04 17:12 -24.84471 -65.47899 4017 ft 0 kts 23°